Wind_Speed
39 35 30 30 28 23 19 14 13 12 9 6 4 5 5 7 8 9 10 11 12 12 11 11 11 12 13 14 15 17 18 18 18 17 16 16 14 12 11 9 8 7 6 4 2 2 2 3 5 5 6 6 6 6 7 8 8 7 7 8 10 11 11 9 6 5 5 6 6 3 2 1 3 5 4 2 1 3 7 9 8 7 6 7 7
38 34 32 31 27 22 17 14 14 10 7 5 5 6 7 8 9 10 11 12 12 12 12 12 13 14 14 15 16 17 18 17 15 13 13 13 10 8 8 7 7 6 4 3 2 2 2 3 5 5 5 5 4 5 7 9 9 9 10 11 11 10 10 9 6 6 6 6 6 4 3 3 1 3 5 2 1 2 7 7 6 5 4 6 6
38 35 33 31 26 21 16 14 13 9 7 6 7 7 8 9 10 11 12 12 13 13 13 14 14 15 14 15 16 15 16 15 12 10 10 10 9 7 7 7 7 6 6 5 5 3 1 1 2 1 1 1 0 2 3 5 7 8 11 12 12 12 10 8 8 7 5 4 5 5 6 4 3 4 4 2 1 1 3 5 4 4 5 5 5
40 36 31 29 25 19 15 14 11 8 7 8 8 9 9 9 10 11 12 13 13 14 14 15 14 14 14 14 14 14 13 11 10 10 10 10 9 8 8 8 8 9 9 8 9 7 5 5 5 6 6 5 4 3 2 1 3 6 9 12 15 14 13 12 12 8 4 4 4 3 5 3 3 2 4 4 3 3 1 5 5 7 7 5 4
42 35 29 28 23 17 15 13 10 8 8 9 9 9 9 10 11 12 13 13 14 16 16 16 15 14 14 14 14 13 12 11 10 9 9 9 9 8 9 9 10 11 11 11 12 11 9 9 9 9 8 6 6 5 4 2 1 3 5 10 14 13 13 15 13 10 6 4 4 3 4 4 6 5 5 5 3 4 3 4 7 8 8 4 4
41 33 27 27 22 16 15 13 10 9 9 10 10 10 9 10 11 12 13 14 15 16 16 16 16 15 14 14 14 13 12 11 10 8 8 10 10 10 10 10 11 11 11 12 13 12 10 9 9 9 7 6 6 6 5 3 0 3 5 7 11 13 14 13 9 8 6 6 7 6 5 5 8 7 6 5 5 5 3 6 8 7 6 5 4
38 30 26 25 20 16 15 12 10 10 10 11 10 10 9 11 11 12 13 14 14 14 15 15 15 15 14 13 12 12 11 10 9 8 9 10 11 11 10 11 11 11 10 12 13 12 11 9 9 8 6 5 5 5 6 4 1 3 5 6 8 11 13 11 8 8 7 7 11 10 6 7 9 8 7 8 8 6 6 10 9 6 6 6 4
34 28 25 23 18 15 14 11 10 10 11 11 10 9 10 11 11 12 13 13 13 14 14 14 13 13 13 12 11 11 10 9 8 8 9 9 9 9 9 11 11 10 10 12 11 10 9 9 10 8 7 6 5 5 5 3 1 1 2 5 8 9 11 10 9 9 9 10 13 12 10 10 10 9 9 9 8 8 10 11 9 7 8 8 6
31 26 24 21 16 14 12 10 9 10 10 10 10 10 11 11 11 12 12 13 14 14 13 13 12 12 12 12 11 10 9 9 9 9 10 8 7 7 7 9 9 10 10 10 9 9 8 7 8 7 6 5 4 6 5 3 3 3 2 3 6 7 9 9 8 9 9 11 15 15 13 12 11 10 10 9 6 7 10 10 8 9 9 9 6
28 25 22 18 14 13 11 9 9 10 11 10 10 11 11 12 11 12 12 13 14 14 13 13 12 12 12 12 12 11 9 9 9 10 10 9 6 6 6 7 8 10 10 9 10 9 8 8 8 8 7 5 5 6 5 3 4 5 5 5 6 6 8 8 9 8 7 11 13 13 12 11 12 11 11 11 9 9 11 10 9 9 9 8 4
26 23 20 16 12 12 10 8 10 11 11 10 10 11 12 12 12 12 12 13 13 13 13 13 12 12 12 12 11 11 9 8 9 10 10 9 7 7 8 8 8 9 10 11 11 10 10 11 12 12 9 8 7 8 8 5 5 7 8 9 11 11 12 11 10 10 6 10 11 10 10 9 10 12 12 13 14 13 11 11 10 9 9 7 5
25 22 18 14 12 11 9 9 11 11 11 9 10 12 12 12 12 12 12 13 13 13 13 12 12 12 13 13 11 11 9 8 9 9 10 9 9 9 9 9 9 9 11 12 12 11 13 14 14 12 10 10 10 10 9 6 4 6 9 10 11 12 13 13 13 13 8 7 9 10 11 10 11 12 12 11 12 12 11 10 10 9 8 7 4
23 20 16 12 11 11 9 9 11 11 10 9 11 12 12 12 12 13 13 13 13 13 13 12 13 13 14 13 11 10 9 9 9 10 10 10 10 10 9 10 10 10 12 14 13 13 14 14 13 12 12 11 9 6 3 2 3 5 7 9 9 10 11 11 13 14 11 6 6 8 10 12 13 14 13 11 10 11 10 9 9 7 5 4 4
22 19 15 11 11 10 8 9 10 10 9 9 11 12 12 12 12 13 13 14 13 13 13 13 13 14 14 14 13 12 10 10 11 12 12 11 11 11 11 11 11 12 13 14 13 13 13 13 13 13 12 11 9 7 3 2 3 4 6 7 7 7 8 9 10 12 13 8 5 5 5 7 10 12 13 12 11 11 10 9 7 4 3 4 6
21 17 13 10 10 9 8 9 10 9 8 9 11 12 12 12 12 13 14 14 14 14 14 14 15 15 16 17 16 15 14 14 15 15 15 14 14 14 13 13 13 13 13 13 15 15 14 15 16 15 13 11 10 9 7 6 6 6 6 6 6 6 6 7 8 9 10 10 7 5 6 4 6 8 8 10 11 11 10 9 6 7 7 7 6
20 16 11 9 9 8 8 9 9 9 9 10 12 12 13 12 13 14 15 15 16 16 16 16 17 18 19 20 19 19 19 20 20 20 21 21 21 20 19 17 16 16 16 15 16 17 18 19 20 19 18 15 13 12 11 10 10 10 10 9 9 8 8 7 7 7 7 8 8 6 6 6 8 10 6 5 8 10 9 7 7 7 6 5 5
19 15 10 8 9 8 8 8 9 9 10 12 13 13 14 14 14 16 17 18 18 19 18 19 21 22 23 24 23 24 25 25 26 27 27 28 29 28 27 25 24 23 22 21 20 21 23 23 23 23 23 22 20 18 16 15 14 13 13 12 12 12 11 11 11 10 9 9 8 5 4 6 12 14 8 4 5 7 6 6 6 5 4 4 6
17 13 8 7 8 7 7 8 9 10 11 13 14 15 15 15 17 18 19 20 21 21 22 24 25 27 27 28 28 29 30 30 31 32 34 35 36 36 35 34 33 32 30 29 28 29 30 30 29 29 29 30 29 27 25 23 20 18 16 15 15 15 15 15 14 14 13 12 10 7 5 4 11 15 11 6 3 4 4 4 4 5 5 6 6
15 11 6 6 6 6 6 7 9 10 13 14 15 16 16 17 19 21 22 22 23 24 25 27 29 29 30 31 32 33 34 34 35 37 39 41 42 42 41 41 39 38 37 37 36 36 36 37 37 37 37 38 39 39 38 36 32 28 25 23 21 20 18 17 16 15 14 14 12 11 10 8 7 11 11 8 6 5 5 5 6 6 6 6 6
13 9 5 5 5 5 6 7 10 11 14 14 15 16 17 18 20 22 23 24 25 26 28 30 30 31 32 32 33 34 35 36 38 41 44 45 46 46 45 44 42 41 40 40 40 39 39 41 42 42 42 42 44 47 46 45 43 40 37 35 32 28 25 22 20 18 17 16 16 15 14 12 9 8 8 7 7 6 5 4 4 4 4 4 5
11 7 4 3 4 5 5 8 11 12 14 15 16 16 18 19 21 23 24 25 26 28 30 31 31 31 32 32 33 34 35 36 39 41 42 43 44 44 45 44 43 41 40 40 40 40 40 41 42 43 44 43 43 45 47 47 47 46 45 44 42 39 36 32 29 26 24 21 20 18 17 15 14 11 9 6 4 3 3 2 2 2 2 3 3
9 5 3 2 3 5 6 10 12 13 15 15 16 17 19 21 23 24 25 26 28 29 30 31 31 31 31 32 33 33 34 34 34 36 36 37 39 40 41 42 41 40 39 39 39 40 40 40 41 42 44 44 42 42 43 44 44 45 45 46 46 45 43 41 39 36 34 31 28 26 24 22 19 17 14 12 10 8 7 6 6 5 5 4 5
7 4 2 0 3 5 7 11 13 14 15 15 17 18 21 23 24 25 25 27 29 30 30 30 30 30 30 31 32 32 33 32 32 32 33 35 36 37 37 38 38 38 38 38 38 39 39 39 40 41 42 44 43 42 42 42 43 43 44 45 45 45 45 44 44 43 41 40 38 36 34 32 29 26 22 19 16 14 12 10 9 8 7 6 7
5 2 2 1 4 6 9 12 13 15 15 15 18 20 23 25 25 25 27 28 29 30 30 29 29 29 29 30 31 31 31 31 31 31 32 33 33 33 34 34 35 36 36 36 37 37 37 37 39 40 41 41 42 42 41 42 43 43 43 44 44 44 44 44 43 43 43 43 42 42 41 40 38 36 33 30 27 24 21 18 16 13 11 10 9
3 3 3 4 6 7 10 13 14 16 16 16 19 23 25 26 26 26 27 29 29 29 28 28 28 27 28 28 28 28 28 28 29 29 29 30 30 31 31 31 32 33 33 34 35 35 35 35 37 38 39 40 41 41 41 41 41 41 42 42 43 43 43 42 42 42 42 42 42 42 42 42 42 41 40 38 36 34 31 29 26 23 20 18 16
2 5 5 6 7 8 12 13 14 17 17 18 21 24 26 26 27 27 28 29 29 28 27 27 26 26 25 25 25 25 26 26 27 27 27 27 28 28 29 30 31 32 33 33 33 33 33 35 36 36 37 38 39 40 41 41 41 41 41 41 41 41 41 41 41 41 41 40 40 42 42 42 42 42 42 41 40 39 37 36 35 33 30 28 25
4 7 7 7 8 10 14 14 15 17 19 20 23 26 27 27 27 27 28 29 29 28 27 26 25 24 24 24 25 25 26 26 25 25 25 25 26 26 27 29 32 33 33 33 33 33 33 34 35 36 36 37 38 39 39 40 41 41 41 40 40 40 40 39 39 40 40 38 38 40 40 41 41 41 41 41 41 40 39 39 38 37 35 34 32
6 8 8 9 10 12 15 15 16 18 20 22 24 26 27 27 27 27 28 28 28 27 26 25 24 24 24 25 26 26 26 26 26 25 24 23 23 24 26 29 31 33 33 33 34 34 34 34 35 35 36 36 37 38 38 39 39 40 40 40 40 39 40 40 39 40 39 38 38 38 39 39 39 39 39 39 40 40 40 39 38 38 36 35 33
8 9 9 10 11 13 16 17 18 20 22 24 26 27 27 27 27 27 27 27 27 26 25 25 24 25 26 26 25 25 26 26 26 25 24 23 23 23 25 28 31 32 33 34 35 36 35 34 35 35 36 36 36 37 37 38 38 38 38 39 39 38 39 39 39 39 39 39 37 36 37 37 37 37 37 37 37 37 37 37 37 36 35 34 33
10 9 10 11 12 15 17 18 20 22 23 25 27 27 27 27 26 27 26 26 26 26 26 25 25 26 25 25 24 24 25 25 25 24 24 24 23 23 25 28 30 32 32 33 34 35 35 34 34 34 34 35 35 35 36 36 37 37 37 37 37 37 37 37 38 38 38 37 36 35 36 36 35 35 35 35 34 34 34 34 34 34 33 33 32
11 10 11 12 14 17 19 20 22 24 25 27 28 27 27 26 26 26 25 25 25 26 26 26 25 25 24 24 23 24 24 24 24 24 24 25 25 24 26 27 29 30 31 31 32 33 33 33 33 32 32 32 33 33 34 34 35 35 34 34 35 35 35 35 36 36 36 35 34 34 33 33 33 33 33 32 32 31 31 31 31 30 30 30 31
12 11 12 13 15 18 20 21 24 25 26 28 28 27 26 25 25 25 24 24 25 25 26 25 25 24 23 23 23 23 24 24 24 24 25 25 26 26 26 27 29 29 30 30 30 30 30 31 31 31 30 30 30 31 31 32 33 33 32 32 33 33 33 34 34 34 34 33 32 32 31 31 31 30 30 30 29 28 27 27 27 26 26 26 26
12 11 13 14 16 19 21 23 25 25 27 28 29 27 26 25 24 24 23 23 24 25 25 24 23 23 23 23 23 23 23 24 24 24 24 25 26 26 26 27 28 28 28 28 28 29 30 31 31 30 29 29 29 30 30 31 31 31 31 31 32 32 32 32 32 32 32 31 30 29 29 28 28 27 27 26 26 26 25 24 23 22 22 22 21
12 12 14 15 17 20 21 24 26 26 27 29 29 27 25 24 23 23 23 23 24 24 24 23 22 22 22 22 22 22 23 23 24 24 24 25 26 26 26 27 27 27 27 27 27 28 29 29 28 26 27 28 29 29 30 30 30 30 30 30 30 31 31 31 31 30 30 29 29 28 27 26 25 24 24 23 23 22 22 21 21 20 19 18 17
13 14 15 17 18 20 22 24 26 26 27 29 29 27 25 23 22 21 22 22 23 24 23 22 21 21 21 21 21 21 22 22 23 23 24 24 25 26 26 26 27 27 27 27 27 27 27 27 25 23 25 27 27 28 28 29 29 29 29 29 29 29 29 29 29 29 28 28 27 26 26 24 24 23 21 21 20 19 19 19 18 17 17 16 15
14 15 16 17 20 21 23 25 26 27 27 28 28 26 24 22 20 20 21 22 23 23 22 21 20 20 20 20 20 20 20 21 22 23 23 23 24 25 26 27 27 27 27 26 26 26 26 26 26 25 25 26 26 27 27 27 28 28 28 29 29 28 28 28 27 27 27 26 26 25 24 23 23 21 20 19 18 17 16 16 15 15 14 14 13
14 16 16 18 21 22 24 25 26 27 27 28 27 25 23 21 19 20 21 22 22 22 21 19 18 18 18 19 19 19 19 20 21 22 23 23 24 25 26 26 26 26 26 26 25 25 25 25 26 26 25 26 26 26 26 27 27 27 28 28 28 28 28 27 26 26 26 26 26 24 23 22 21 20 19 18 16 15 14 13 13 12 12 11 11
15 16 17 19 22 24 26 26 27 27 27 27 27 25 23 20 20 22 23 23 22 21 19 18 17 16 17 17 18 18 18 19 21 21 22 23 24 24 25 25 25 25 25 25 25 25 25 25 26 26 26 26 26 26 26 26 26 26 27 27 27 27 27 27 27 27 27 27 26 25 23 22 20 19 17 16 14 13 12 12 11 10 9 9 8
16 17 17 19 22 25 27 27 28 28 27 27 26 25 23 22 22 23 24 23 22 20 18 17 15 15 15 16 17 18 18 18 19 20 21 22 22 22 23 24 24 24 24 24 24 24 25 25 25 26 26 26 26 26 26 26 26 26 26 27 27 27 28 28 28 28 28 28 28 26 24 22 20 18 16 14 13 11 9 9 8 8 7 6 6
17 15 16 18 21 24 27 28 28 28 27 26 25 25 23 23 24 25 24 23 21 19 17 16 14 14 14 14 16 17 17 17 18 19 20 20 20 21 22 23 24 24 24 24 23 23 23 24 24 25 25 26 26 27 27 27 27 27 27 27 27 28 29 29 29 29 29 29 29 27 25 23 21 19 17 15 13 11 9 7 6 5 4 3 3
16 15 15 18 20 24 27 28 28 28 28 26 25 25 24 23 24 24 24 22 21 18 17 15 14 13 13 14 15 16 16 16 17 18 18 18 18 19 21 22 22 22 22 22 22 22 22 22 23 24 25 25 26 27 28 28 28 28 28 28 28 29 29 30 30 31 31 31 29 28 25 23 22 20 19 17 15 13 11 9 7 5 4 3 2
14 15 15 17 20 24 27 29 28 28 28 27 26 25 24 24 24 24 23 22 20 18 16 14 13 12 12 13 14 15 16 16 17 17 17 17 17 18 19 20 20 20 20 20 20 20 20 21 22 23 24 25 26 27 28 28 29 29 29 30 30 30 30 30 32 33 33 32 29 27 25 23 22 21 20 19 17 16 14 13 11 9 7 6 5
13 15 16 18 20 24 28 30 29 28 27 27 26 25 24 23 22 22 21 20 19 18 16 14 12 11 11 11 12 14 15 15 16 16 16 15 15 15 16 17 18 18 18 18 18 19 19 19 20 22 23 24 26 27 28 28 29 30 30 31 31 31 31 31 33 34 34 32 28 25 24 23 22 21 21 20 18 17 16 15 14 12 11 9 7
12 12 14 17 20 23 27 30 30 28 27 25 24 23 22 20 20 19 19 18 17 16 15 13 12 11 11 10 11 12 13 14 15 15 15 14 14 14 14 15 15 15 15 15 16 16 17 18 19 20 22 23 24 25 26 27 28 29 30 31 31 32 32 33 34 35 35 32 28 25 24 23 22 22 22 21 19 18 18 17 16 14 13 12 10
11 11 12 15 18 22 25 28 29 28 26 24 22 20 19 18 17 17 17 16 15 14 13 12 11 11 10 10 10 10 11 12 13 14 14 14 13 13 12 13 13 14 13 14 14 15 15 16 17 19 20 21 22 23 24 26 27 28 29 30 31 32 33 34 34 36 36 32 28 25 24 23 23 23 22 22 21 20 20 19 18 16 15 13 12
11 12 13 14 17 20 23 26 28 28 26 24 22 20 17 17 16 16 15 15 14 14 13 12 11 10 9 9 9 9 9 10 11 11 12 12 12 12 12 12 12 13 13 13 13 13 14 15 16 17 18 18 19 20 22 24 26 27 28 30 31 32 33 34 35 36 37 33 28 26 24 24 24 24 23 22 22 22 22 21 21 19 17 15 13
12 12 14 16 16 18 21 24 25 26 26 25 23 21 19 17 17 18 18 17 17 16 15 13 11 9 8 7 7 7 7 8 8 9 10 10 10 10 10 11 11 11 11 11 11 12 13 13 14 14 15 15 16 18 20 22 24 26 27 29 30 31 33 34 35 36 37 35 29 26 25 25 25 24 24 24 23 24 23 23 23 22 21 21 18
13 12 13 15 16 16 19 22 24 24 25 26 25 23 21 20 19 20 19 18 18 17 15 14 12 10 9 7 6 6 6 6 7 7 8 8 8 8 8 9 10 10 10 10 10 11 11 12 12 12 13 13 14 16 18 20 23 24 26 28 29 31 32 33 34 35 37 35 29 26 25 25 25 25 25 25 25 25 24 24 24 24 24 25 24
13 13 11 12 14 15 17 20 22 23 24 26 26 25 24 23 22 21 19 16 15 15 14 13 11 10 9 8 6 6 5 5 5 6 6 6 6 5 5 6 7 8 8 8 8 9 10 10 10 11 11 11 12 14 16 19 21 23 25 27 28 30 31 32 33 35 37 36 30 26 25 25 26 26 26 27 27 26 26 25 24 24 25 26 27
13 14 14 13 13 15 17 18 20 23 24 26 27 28 27 27 25 21 18 14 13 13 13 12 11 9 8 7 6 5 5 5 5 5 5 4 4 3 3 3 4 5 6 6 6 7 8 9 9 9 10 10 12 13 15 18 20 22 24 26 27 29 30 31 32 34 36 35 30 26 25 25 26 27 28 29 28 28 27 25 24 23 24 26 27
12 13 15 15 14 14 16 17 19 22 24 25 27 29 29 28 26 22 18 15 14 14 13 12 11 10 9 8 7 6 5 5 4 4 4 4 3 2 1 1 1 2 3 4 5 6 6 7 8 9 9 10 11 13 15 17 20 22 23 25 26 28 29 29 31 32 35 35 31 26 25 26 27 28 29 30 30 29 28 26 23 23 23 25 26
Wind_Direction
-0 357 357 356 354 351 350 345 337 333 328 326 328 333 349 359 2 4 13 20 19 17 21 36 54 69 82 88 88 87 86 85 81 75 75 73 72 74 77 84 86 88 89 95 113 152 189 212 223 232 235 239 237 235 231 227 221 207 190 195 219 229 238 229 202 211 209 197 181 194 229 108 6 325 299 240 174 61 18 356 352 3 15 15 14
359 357 358 355 354 353 350 346 343 344 347 352 359 6 12 9 13 23 36 37 29 30 40 55 67 76 83 85 84 84 85 84 82 80 80 80 81 81 81 86 86 84 76 57 13 297 252 239 239 241 247 250 246 249 244 234 222 206 194 198 212 216 232 232 209 207 215 206 168 184 196 147 174 247 252 249 218 65 20 342 340 356 355 3 10
359 359 356 354 355 355 351 347 348 356 2 10 17 22 20 17 28 41 51 47 42 46 57 68 75 79 82 82 79 79 83 83 87 90 93 99 102 98 91 88 82 75 66 42 19 355 296 234 233 211 167 137 241 290 274 235 220 215 206 195 199 201 207 213 219 217 215 197 152 189 182 160 203 193 227 237 227 104 25 315 316 341 332 348 4
358 357 355 354 355 356 352 349 355 5 13 24 28 26 23 30 43 56 62 55 55 60 67 76 80 84 82 80 76 74 81 83 88 88 93 105 107 92 81 76 65 57 57 44 36 45 73 100 100 98 100 82 44 37 58 119 192 225 215 194 199 201 193 197 212 202 190 196 154 203 176 164 234 191 256 246 240 213 203 300 303 313 312 333 0
354 354 355 354 356 358 352 353 2 12 23 32 31 28 33 43 53 67 70 63 66 68 73 80 81 83 80 77 76 75 77 77 77 76 76 80 79 66 57 55 52 52 53 46 47 61 83 97 101 98 88 62 49 58 58 54 141 203 204 197 202 202 196 202 208 189 184 194 149 194 187 216 234 206 256 253 243 234 224 286 276 289 302 324 348
352 354 356 354 357 356 352 358 8 18 30 34 32 34 45 51 61 76 74 69 72 71 75 79 78 79 81 79 79 78 76 74 69 60 51 47 44 39 39 38 40 50 52 52 58 68 81 90 97 95 79 68 69 58 32 22 339 185 191 203 198 200 209 213 208 186 187 193 171 181 195 236 240 222 252 251 234 239 243 266 264 279 296 311 330
352 355 356 355 357 356 357 4 12 24 31 32 34 44 57 57 67 83 77 73 74 74 76 78 78 78 81 80 76 75 71 69 65 56 44 35 29 25 30 32 36 46 52 58 63 71 80 84 86 88 87 83 70 39 10 6 310 217 199 203 195 204 217 218 209 185 171 194 191 181 193 236 250 241 238 231 224 229 238 248 261 289 294 299 304
353 357 356 356 358 357 1 8 18 28 31 32 39 55 63 60 74 87 81 77 78 78 77 77 80 79 78 73 69 67 63 56 50 51 49 43 34 29 25 30 37 44 52 58 63 73 81 88 85 77 80 79 57 49 28 8 354 228 201 203 207 216 213 208 205 191 178 198 197 181 184 214 242 242 223 223 219 223 243 246 258 284 284 291 282
355 358 356 357 359 358 3 12 24 31 32 34 48 66 66 65 79 89 85 82 81 79 78 77 77 75 72 68 64 62 55 47 41 43 55 60 52 48 34 32 42 49 54 56 65 76 76 88 96 84 75 66 50 73 68 23 37 60 88 170 190 198 191 185 182 183 193 201 196 188 191 206 222 227 229 240 237 231 251 257 265 274 273 284 279
358 359 357 358 358 357 4 16 28 34 35 40 60 73 70 71 81 88 87 85 83 81 78 74 68 66 66 64 63 59 51 46 47 49 61 71 60 59 62 52 47 51 55 60 73 78 70 74 86 82 75 63 42 64 76 50 42 64 82 96 108 117 133 148 158 161 192 201 190 189 193 208 213 211 227 242 245 239 242 254 266 270 267 270 272
359 358 357 358 356 356 6 20 30 35 37 47 69 78 74 74 81 85 85 83 82 79 76 70 64 61 63 64 64 64 57 49 53 57 64 72 68 69 74 67 53 54 62 70 77 76 68 68 73 73 70 65 43 36 45 48 54 72 81 85 89 96 108 115 130 141 178 196 182 183 187 205 215 204 215 229 237 243 240 250 265 271 268 252 258
358 358 357 357 354 356 11 25 33 37 40 54 72 78 76 76 80 82 82 81 78 75 73 67 60 59 64 66 66 67 66 62 61 61 64 68 72 73 72 70 66 69 77 79 76 69 63 61 65 70 70 64 47 34 25 22 54 79 85 86 87 92 102 108 120 131 152 185 179 184 188 205 225 213 215 222 229 240 242 252 259 258 244 227 260
358 359 357 356 354 0 17 28 38 41 45 62 75 78 76 77 79 79 79 76 74 71 67 62 62 67 71 72 71 70 70 72 70 69 69 67 67 70 71 71 70 73 79 80 74 64 59 57 57 64 75 78 74 66 34 356 66 89 91 89 88 90 97 107 119 129 139 170 196 197 192 202 221 221 224 228 229 237 240 244 243 231 213 219 304
359 360 358 356 355 5 22 32 42 47 56 69 77 79 76 77 77 76 75 74 72 68 65 66 73 78 79 80 81 82 79 76 75 75 75 72 69 70 71 73 72 71 76 81 80 71 59 52 49 56 70 85 97 105 111 92 79 86 88 91 92 96 102 111 121 130 138 154 196 234 223 203 211 218 224 231 239 245 233 227 240 262 307 314 319
360 360 358 356 357 9 26 35 45 56 67 76 82 81 77 77 77 77 75 74 73 72 74 77 82 83 83 83 82 82 79 75 74 73 72 72 71 70 71 73 74 74 77 82 86 82 70 59 55 56 60 70 81 85 84 80 78 78 81 87 92 100 110 118 128 138 143 153 167 213 252 245 201 195 211 222 228 233 222 219 251 293 307 309 310
359 358 357 357 0 14 30 36 50 64 73 82 87 82 78 79 80 79 79 80 82 83 84 84 84 83 82 81 80 78 76 74 73 72 72 72 72 72 72 73 75 77 80 86 89 85 80 72 62 57 59 63 68 74 78 81 82 82 82 80 83 91 105 115 124 133 139 144 148 174 219 233 199 184 193 194 191 202 210 225 254 272 280 292 303
357 356 356 357 3 21 31 40 56 69 79 89 90 84 81 82 84 85 87 89 89 89 89 88 85 83 82 81 81 79 77 76 76 76 76 77 76 75 76 76 78 80 83 88 89 83 79 73 64 61 63 66 70 73 77 81 83 83 82 79 79 85 95 105 107 110 109 107 109 132 178 199 192 191 199 186 166 189 209 233 248 257 265 300 314
356 354 354 356 11 30 33 45 65 78 88 94 91 88 86 87 90 93 95 94 93 92 91 89 87 85 84 82 82 81 80 80 80 81 82 82 82 81 80 79 80 82 84 86 85 83 80 75 73 72 72 73 73 75 76 77 79 79 81 81 81 84 88 94 97 97 95 95 96 97 94 144 184 193 201 201 187 189 203 219 239 258 275 299 311
356 352 352 357 19 41 37 55 77 88 96 98 94 92 92 94 97 99 99 98 97 95 93 91 89 88 86 85 85 84 83 83 84 86 87 87 85 84 82 81 80 83 85 85 86 86 83 79 79 77 77 78 78 78 78 77 78 79 80 82 82 82 84 86 88 89 90 91 91 87 82 92 154 188 200 207 214 222 234 249 266 269 278 290 297
355 350 349 357 32 52 48 71 89 97 102 102 97 96 98 100 103 103 102 102 100 97 95 94 92 90 89 88 87 86 86 87 89 90 90 89 87 84 83 81 79 81 83 85 87 88 85 81 80 79 78 81 81 79 79 79 79 80 80 80 81 81 82 82 84 86 89 90 89 86 84 86 101 142 177 201 220 235 245 255 269 269 286 298 302
352 348 341 358 52 66 65 88 99 104 107 105 102 102 104 106 107 107 106 104 102 100 98 96 94 93 91 90 89 89 89 90 92 93 91 89 87 84 82 80 79 79 80 82 85 86 85 82 81 79 78 81 83 81 80 81 81 80 80 80 80 80 80 81 82 83 84 85 86 86 86 89 92 101 115 128 133 117 100 89 75 65 37 16 7
349 343 329 356 77 85 86 102 108 110 112 110 107 108 111 112 111 110 109 106 104 102 100 98 97 95 93 92 91 90 91 93 94 94 91 89 86 83 80 78 77 77 77 78 80 81 81 80 79 78 77 79 82 82 81 81 80 79 79 79 79 80 80 80 81 81 82 82 82 83 84 86 88 89 91 93 91 86 83 78 74 68 62 55 47
344 330 296 345 105 102 103 112 114 115 117 114 113 115 117 117 114 113 111 108 106 104 101 99 98 95 93 91 90 91 92 95 97 95 93 91 87 82 78 75 73 73 74 75 75 76 76 76 75 76 75 76 79 79 79 78 77 77 76 77 77 78 79 79 80 80 80 81 81 81 82 82 82 82 81 80 80 79 78 75 72 68 60 50 44
336 291 229 164 127 115 114 119 119 120 121 119 119 122 122 120 118 115 113 110 107 105 103 100 98 94 91 90 89 91 92 94 97 97 94 91 86 81 77 74 72 70 70 71 71 72 73 73 73 73 73 74 75 75 74 74 74 74 73 73 73 74 75 75 76 76 76 76 77 77 78 79 79 79 79 78 77 76 75 74 72 70 65 59 55
314 231 203 166 139 126 123 124 123 125 125 124 126 127 125 122 120 117 114 112 109 107 104 101 97 93 90 89 88 89 91 93 95 96 95 91 86 83 79 75 73 70 68 69 70 71 73 74 73 72 73 72 72 72 71 71 70 70 70 70 70 70 70 70 70 70 70 69 69 70 70 72 72 73 75 75 75 75 74 74 73 72 70 69 67
252 207 195 167 145 132 128 127 127 129 129 129 131 131 128 124 122 119 116 114 111 108 105 101 97 92 89 87 86 86 88 91 93 94 94 92 88 84 81 76 75 73 69 68 71 72 73 73 72 71 71 71 71 70 70 69 69 68 68 68 68 67 66 66 65 65 65 63 62 64 64 64 65 66 67 69 70 71 71 72 72 72 72 71 72
208 196 190 167 148 136 132 129 130 132 133 134 136 135 130 127 124 121 119 116 113 110 107 103 98 93 89 87 88 87 87 87 89 91 93 93 90 85 81 78 75 74 70 68 71 74 72 71 70 70 70 71 71 70 70 70 69 69 68 67 67 67 65 64 62 62 63 61 57 58 59 59 60 61 62 63 63 64 66 66 67 68 69 70 72
188 188 185 165 148 139 134 132 133 136 137 137 139 137 132 129 126 124 121 118 115 111 108 104 99 95 92 92 90 88 86 85 85 87 91 93 91 86 81 78 76 74 71 70 73 75 73 71 70 71 71 71 71 71 71 71 71 70 69 68 67 67 66 65 63 61 61 61 56 55 56 56 56 56 57 58 59 60 61 62 63 64 66 68 70
177 182 183 163 146 139 135 135 136 139 140 140 141 139 134 131 129 127 124 120 116 112 109 104 100 98 97 95 91 86 85 85 84 83 88 93 92 88 83 80 78 75 72 73 75 76 76 73 72 71 71 71 71 71 72 72 72 71 70 69 68 67 66 65 64 63 61 61 58 55 56 55 54 54 54 56 57 58 59 61 62 63 66 67 69
170 179 179 161 145 139 136 137 139 142 142 142 144 140 136 134 132 130 126 121 117 113 110 106 103 102 100 96 90 86 84 84 83 81 86 93 93 89 85 82 80 77 74 76 78 77 77 76 74 71 70 70 70 70 70 71 71 71 70 69 69 67 66 66 65 65 63 62 61 58 58 57 56 55 54 55 55 57 59 61 62 63 65 66 68
165 177 173 157 145 140 138 139 142 144 145 145 145 142 138 136 135 133 128 123 119 114 111 108 107 105 101 97 90 86 84 84 84 82 85 91 94 90 86 83 81 79 78 79 80 79 77 75 74 72 70 69 69 69 69 69 69 69 68 68 68 66 65 65 65 64 63 62 61 59 58 58 58 57 56 56 55 56 57 59 61 62 64 66 67
164 175 169 155 146 142 140 141 144 146 147 148 147 143 140 139 138 136 131 126 120 116 113 111 109 106 102 96 90 86 84 84 84 82 83 89 93 91 88 85 83 82 81 82 81 79 77 74 73 71 70 69 69 69 68 68 68 67 66 65 65 65 63 62 62 62 61 60 58 57 57 57 58 58 58 58 58 58 57 59 61 63 65 67 69
163 173 165 152 147 144 142 144 147 149 149 150 149 145 143 142 141 138 134 127 121 117 115 114 110 105 100 95 89 85 84 84 84 83 83 87 91 91 89 87 85 84 83 83 80 78 76 75 72 69 69 70 69 69 69 68 68 67 66 64 64 63 61 60 59 59 58 57 56 54 54 55 56 58 59 60 61 62 61 61 62 64 65 68 71
162 169 162 151 148 146 144 147 150 152 151 152 151 148 145 143 142 140 135 128 122 119 117 114 109 104 98 93 89 84 83 83 83 84 84 87 90 92 90 89 87 85 84 82 80 78 77 76 73 70 70 71 70 69 68 68 67 67 66 64 64 63 61 59 57 55 54 54 52 51 51 51 53 55 57 59 61 63 64 65 65 65 66 68 70
163 168 161 152 151 148 147 150 153 155 154 155 154 150 147 144 142 140 136 130 125 122 118 114 108 102 97 93 88 84 82 83 84 86 87 89 90 92 92 90 89 87 86 83 80 79 77 78 79 76 72 71 70 68 67 66 66 65 64 63 63 62 61 58 56 53 51 49 48 47 46 46 47 49 52 54 56 59 62 64 65 65 65 66 68
163 167 161 154 152 150 150 152 156 158 157 157 157 153 149 144 142 140 137 133 128 124 119 114 107 101 98 93 88 84 83 84 85 87 90 92 92 93 93 92 91 89 87 85 82 80 77 76 77 76 72 70 69 67 66 65 64 63 62 61 61 61 60 58 55 51 48 45 44 43 41 40 40 42 43 46 49 52 54 57 60 61 60 61 60
163 165 159 155 154 152 153 155 158 160 159 160 160 156 151 145 141 139 137 135 131 127 121 115 108 103 98 93 88 84 84 85 87 90 93 94 94 94 94 93 92 90 87 85 82 79 77 75 73 71 69 68 67 66 66 65 63 61 60 59 58 58 57 55 51 46 42 40 39 38 37 35 35 36 36 39 42 44 45 46 49 52 51 51 49
163 164 159 158 158 155 155 157 159 161 161 161 161 158 152 145 140 138 138 137 133 129 123 117 110 104 99 94 89 85 85 87 89 93 96 97 95 94 94 94 92 90 88 85 82 79 76 74 72 70 68 66 65 64 63 63 62 60 58 57 55 53 53 50 46 42 37 33 32 32 31 30 30 31 32 33 36 38 41 41 40 40 39 39 35
162 166 162 160 160 159 158 158 159 161 162 161 160 157 152 145 140 139 139 138 136 131 126 121 115 108 102 96 91 87 86 89 91 96 99 99 96 95 95 93 91 89 87 85 83 79 76 73 71 68 66 64 63 62 61 60 60 58 57 55 52 50 47 45 41 37 33 29 28 27 27 26 26 26 27 28 30 31 36 40 42 40 35 27 20
160 165 163 160 161 161 160 159 160 161 162 161 159 156 151 146 143 142 142 141 138 135 131 126 120 114 107 100 93 89 88 90 94 98 100 99 96 94 93 92 90 88 86 84 80 77 74 72 69 67 64 63 61 60 59 58 57 56 54 52 49 47 43 40 37 33 30 27 26 25 25 25 25 25 25 25 26 23 22 23 29 36 34 24 5
157 161 163 161 161 163 162 160 160 161 162 162 160 157 154 150 147 146 146 145 143 140 137 132 127 120 112 104 96 92 90 92 96 101 102 98 94 93 92 90 90 88 85 82 79 76 72 70 68 67 64 63 61 59 58 57 55 53 51 49 47 44 40 37 33 30 27 25 25 26 26 27 29 28 28 28 26 24 20 16 12 8 0 340 320
158 159 161 163 162 164 166 163 163 164 164 165 164 162 160 156 153 152 151 150 147 145 141 137 132 125 117 108 100 95 93 94 98 102 102 99 95 93 92 91 89 88 85 82 79 75 72 70 68 67 66 65 63 60 58 56 54 52 49 47 44 41 38 34 31 28 26 25 26 28 29 31 33 34 34 33 32 29 26 23 19 13 5 350 329
163 165 164 166 166 167 169 168 167 168 169 169 168 166 164 161 159 157 154 152 150 148 145 142 139 131 122 112 103 98 95 95 98 101 102 100 96 94 92 90 88 86 83 80 78 75 72 71 70 68 67 66 64 62 59 55 52 50 47 45 42 39 36 32 29 27 24 25 27 30 33 34 36 38 38 37 35 33 30 28 25 21 16 10 359
166 174 171 171 170 170 173 173 172 172 174 174 173 170 168 165 162 159 156 154 153 152 149 148 145 138 129 117 108 102 98 98 100 101 102 100 97 94 92 89 85 82 80 78 77 74 72 72 71 69 66 65 63 60 57 54 50 47 44 42 39 36 34 31 28 25 23 24 27 31 33 35 37 39 40 39 37 34 31 28 25 22 19 16 13
163 176 180 178 176 174 176 178 177 176 179 181 179 177 173 168 164 161 159 158 156 156 156 155 152 145 137 126 116 109 104 103 103 104 103 100 97 96 94 91 87 82 80 80 79 75 72 71 70 68 65 62 59 56 53 50 46 43 40 38 36 33 31 29 26 24 22 23 27 30 32 35 37 40 41 39 38 36 33 29 25 21 18 16 14
165 172 179 181 182 181 180 182 182 181 182 185 185 184 179 173 169 167 166 166 167 168 167 166 162 154 144 133 125 117 110 109 108 108 107 103 99 96 95 93 90 86 82 82 81 77 74 72 70 67 64 60 55 52 48 45 42 39 37 34 32 30 28 26 24 22 21 21 25 29 30 33 36 39 40 38 36 34 31 28 24 22 21 19 14
172 173 177 180 186 188 185 185 187 186 184 187 190 189 186 182 178 177 178 179 180 178 175 172 170 163 152 142 133 125 117 114 112 112 112 109 104 97 94 93 91 87 83 81 80 77 75 73 71 67 62 56 51 46 41 38 37 35 33 31 29 27 26 24 23 21 19 19 23 27 29 31 34 36 36 35 33 31 29 27 26 26 29 28 23
176 175 178 182 185 189 190 189 189 190 187 187 190 192 192 191 189 188 187 187 185 181 178 176 175 170 163 156 150 139 128 121 118 117 117 117 112 105 98 93 90 87 83 80 77 75 73 71 68 64 59 54 46 40 36 33 31 30 29 27 26 25 24 22 21 19 18 18 20 25 27 29 31 32 33 32 30 28 27 27 27 29 31 31 27
177 176 179 189 191 189 194 195 191 191 192 190 188 191 195 196 197 198 196 192 186 183 182 181 178 173 167 166 164 158 146 136 133 127 124 125 125 122 111 99 93 88 83 79 73 70 68 65 62 57 52 46 39 35 31 28 26 25 24 23 22 22 21 20 19 18 17 16 18 23 25 27 29 30 29 29 27 25 25 25 26 28 28 27 25
183 178 180 190 195 191 194 197 193 192 194 194 191 192 197 200 202 204 201 195 190 188 187 185 182 177 171 171 174 174 167 159 154 144 137 136 137 139 136 118 101 88 79 71 63 61 59 57 53 48 42 36 30 26 25 24 22 21 20 19 19 19 19 18 17 17 15 14 16 20 23 25 27 28 27 26 24 23 23 23 24 26 26 24 23
192 185 182 186 192 194 194 195 195 195 195 197 198 198 200 203 206 207 205 201 199 196 192 189 187 184 181 181 184 189 187 183 180 170 158 155 155 161 174 160 119 89 70 58 48 43 42 41 38 34 30 25 21 19 19 19 18 16 16 16 16 17 17 17 16 16 14 13 15 18 22 24 25 26 25 24 23 23 23 23 24 27 26 24 24
Height
10999 10997 10994 10992 10989 10987 10985 10984 10983 10981 10980 10978 10976 10975 10973 10971 10968 10966 10963 10961 10958 10956 10955 10955 10955 10954 10954 10953 10953 10953 10952 10952 10951 10951 10951 10951 10950 10950 10949 10949 10948 10948 10948 10948 10948 10949 10949 10949 10949 10949 10949 10950 10950 10950 10950 10951 10952 10953 10954 10949 10944 10943 10945 10946 10947 10949 10949 10950 10950 10950 10951 10952 10953 10953 10952 10951 10951 10950 10950 10949 10949 10948 10948 10947 10946
10998 10995 10992 10990 10988 10985 10984 10983 10981 10980 10978 10977 10976 10974 10972 10970 10968 10966 10963 10961 10959 10957 10956 10955 10955 10955 10954 10954 10954 10954 10953 10953 10952 10952 10952 10952 10952 10951 10950 10949 10948 10948 10948 10948 10948 10948 10947 10947 10947 10948 10948 10949 10950 10950 10950 10950 10950 10952 10952 10949 10945 10945 10946 10946 10948 10949 10949 10949 10950 10951 10952 10953 10953 10953 10952 10951 10951 10951 10951 10950 10949 10948 10948 10947 10946
10997 10994 10991 10989 10986 10984 10983 10982 10980 10979 10978 10977 10975 10974 10972 10969 10967 10966 10964 10962 10960 10959 10957 10957 10956 10955 10955 10954 10954 10954 10954 10953 10953 10953 10953 10953 10953 10952 10951 10950 10949 10949 10948 10948 10948 10947 10947 10946 10947 10947 10948 10949 10949 10949 10949 10949 10950 10950 10950 10948 10946 10946 10946 10947 10948 10948 10948 10949 10951 10952 10952 10952 10953 10952 10951 10951 10951 10950 10950 10950 10949 10948 10948 10947 10946
10996 10993 10991 10988 10986 10984 10982 10981 10980 10979 10978 10977 10975 10973 10971 10969 10967 10966 10965 10963 10962 10960 10959 10958 10957 10956 10956 10955 10955 10955 10954 10954 10954 10954 10953 10953 10953 10952 10951 10951 10950 10949 10949 10949 10948 10947 10947 10946 10947 10947 10948 10949 10949 10949 10949 10949 10951 10950 10949 10948 10947 10946 10946 10946 10948 10948 10949 10950 10952 10951 10951 10953 10953 10952 10951 10951 10951 10950 10950 10949 10949 10948 10948 10947 10946
10995 10993 10990 10988 10985 10984 10983 10981 10980 10979 10978 10977 10975 10973 10971 10969 10968 10967 10966 10965 10964 10962 10961 10960 10959 10957 10957 10957 10956 10956 10955 10955 10955 10954 10954 10954 10953 10952 10952 10951 10951 10950 10949 10949 10949 10948 10947 10947 10947 10948 10949 10950 10950 10949 10949 10949 10950 10950 10949 10948 10948 10947 10945 10946 10948 10948 10949 10950 10952 10952 10952 10953 10953 10952 10951 10951 10951 10951 10950 10949 10949 10948 10947 10946 10946
10994 10992 10989 10987 10985 10984 10982 10981 10980 10979 10978 10976 10974 10973 10971 10970 10969 10968 10967 10966 10965 10964 10963 10962 10960 10959 10959 10958 10958 10957 10957 10957 10956 10955 10955 10954 10953 10952 10952 10951 10951 10951 10950 10950 10949 10949 10949 10949 10949 10949 10949 10950 10950 10950 10949 10949 10949 10948 10948 10947 10947 10946 10945 10946 10947 10948 10950 10950 10953 10954 10953 10952 10949 10951 10952 10952 10952 10950 10950 10949 10948 10947 10947 10946 10946
10993 10990 10988 10986 10984 10983 10981 10980 10979 10978 10977 10976 10974 10973 10972 10971 10970 10969 10968 10967 10966 10966 10964 10963 10962 10961 10960 10960 10959 10959 10958 10958 10957 10956 10956 10955 10954 10952 10951 10951 10951 10951 10951 10951 10950 10950 10951 10951 10950 10950 10950 10950 10951 10951 10950 10949 10948 10947 10946 10946 10946 10946 10946 10946 10947 10949 10951 10950 10952 10956 10957 10952 10948 10950 10953 10952 10951 10950 10949 10948 10948 10947 10946 10946 10946
10992 10989 10987 10985 10984 10982 10981 10980 10979 10978 10977 10976 10975 10974 10973 10971 10971 10970 10969 10969 10968 10967 10966 10964 10963 10962 10961 10961 10961 10960 10959 10959 10958 10958 10957 10957 10955 10953 10952 10952 10952 10952 10952 10952 10951 10951 10952 10952 10951 10951 10950 10951 10952 10953 10951 10949 10947 10946 10946 10946 10946 10946 10946 10947 10948 10950 10951 10951 10954 10958 10959 10954 10950 10950 10952 10952 10950 10948 10947 10947 10947 10946 10946 10946 10945
10991 10989 10987 10985 10984 10982 10981 10981 10980 10979 10978 10977 10975 10974 10974 10972 10972 10971 10970 10970 10969 10968 10967 10965 10964 10963 10962 10962 10961 10961 10960 10959 10959 10959 10959 10958 10956 10955 10955 10955 10955 10954 10953 10953 10952 10952 10952 10952 10951 10951 10951 10951 10951 10953 10952 10950 10947 10946 10945 10945 10945 10945 10946 10947 10949 10951 10952 10952 10955 10957 10958 10956 10954 10953 10951 10950 10948 10946 10946 10946 10946 10946 10946 10946 10945
10991 10989 10987 10986 10984 10983 10983 10982 10981 10980 10979 10978 10977 10975 10975 10974 10973 10972 10971 10971 10970 10969 10968 10967 10966 10964 10963 10962 10962 10961 10960 10960 10960 10960 10960 10959 10957 10957 10957 10958 10957 10955 10954 10953 10953 10953 10953 10952 10951 10951 10951 10951 10950 10950 10951 10950 10948 10947 10946 10945 10945 10945 10946 10948 10951 10954 10952 10952 10956 10957 10957 10956 10955 10955 10953 10951 10948 10947 10947 10947 10947 10946 10946 10945 10945
10991 10989 10987 10986 10985 10984 10984 10983 10981 10980 10979 10978 10977 10976 10975 10974 10974 10973 10972 10971 10971 10970 10969 10968 10967 10965 10964 10963 10961 10961 10961 10961 10960 10960 10960 10960 10959 10958 10958 10958 10957 10956 10955 10953 10953 10953 10953 10952 10952 10951 10951 10950 10949 10947 10946 10947 10948 10947 10946 10946 10946 10946 10947 10950 10953 10955 10952 10952 10955 10957 10957 10954 10953 10954 10954 10952 10950 10948 10948 10947 10947 10946 10946 10945 10945
10991 10989 10988 10987 10986 10985 10984 10983 10981 10980 10979 10978 10978 10977 10976 10975 10974 10973 10973 10972 10971 10970 10970 10969 10968 10966 10964 10963 10961 10961 10961 10962 10962 10961 10960 10959 10959 10958 10958 10957 10957 10957 10956 10954 10953 10952 10953 10953 10952 10953 10952 10950 10949 10946 10945 10946 10947 10947 10947 10946 10947 10947 10949 10951 10953 10955 10952 10950 10953 10954 10955 10953 10951 10952 10952 10951 10950 10949 10948 10947 10947 10946 10945 10945 10944
10991 10990 10988 10987 10986 10985 10984 10983 10982 10981 10980 10979 10978 10977 10977 10976 10975 10974 10973 10972 10972 10971 10971 10970 10969 10968 10966 10964 10963 10963 10962 10963 10963 10962 10961 10959 10959 10958 10958 10957 10957 10957 10956 10955 10953 10952 10952 10953 10953 10954 10954 10954 10954 10953 10951 10950 10949 10948 10947 10947 10947 10948 10949 10951 10953 10954 10952 10949 10949 10950 10952 10952 10951 10950 10950 10949 10949 10948 10948 10947 10947 10946 10945 10944 10944
10991 10989 10988 10987 10986 10985 10984 10983 10982 10981 10981 10980 10979 10978 10977 10976 10975 10975 10974 10973 10972 10972 10971 10971 10970 10969 10968 10967 10966 10965 10964 10964 10964 10963 10962 10961 10959 10959 10958 10957 10957 10957 10956 10956 10956 10954 10952 10952 10953 10954 10954 10956 10957 10956 10954 10951 10949 10948 10947 10947 10947 10948 10949 10950 10951 10952 10953 10950 10948 10946 10947 10949 10949 10949 10949 10948 10948 10947 10947 10947 10946 10945 10944 10944 10943
10991 10989 10988 10987 10986 10985 10984 10984 10983 10982 10981 10981 10980 10979 10978 10977 10976 10975 10975 10974 10974 10973 10973 10972 10972 10971 10970 10970 10969 10968 10967 10966 10965 10964 10963 10962 10961 10960 10959 10958 10958 10957 10957 10958 10958 10957 10956 10955 10955 10955 10955 10954 10954 10953 10952 10950 10949 10947 10947 10947 10947 10947 10948 10948 10949 10951 10952 10952 10950 10947 10945 10945 10946 10947 10947 10947 10946 10946 10946 10946 10945 10944 10944 10943 10943
10991 10989 10988 10987 10986 10986 10985 10984 10983 10982 10982 10981 10981 10980 10979 10978 10978 10977 10976 10975 10975 10974 10974 10974 10973 10973 10972 10971 10970 10969 10968 10967 10966 10965 10964 10962 10962 10961 10960 10960 10959 10959 10959 10959 10960 10960 10960 10959 10958 10957 10955 10953 10952 10951 10950 10949 10948 10947 10947 10947 10946 10946 10947 10947 10948 10948 10949 10950 10951 10949 10946 10945 10945 10946 10946 10945 10945 10945 10946 10946 10945 10945 10944 10943 10943
10991 10989 10988 10987 10987 10986 10985 10984 10984 10983 10983 10982 10982 10981 10980 10980 10979 10978 10977 10977 10976 10976 10976 10976 10975 10974 10973 10973 10972 10971 10969 10968 10968 10967 10966 10964 10963 10962 10962 10961 10961 10961 10961 10961 10962 10962 10962 10962 10960 10958 10955 10953 10951 10950 10950 10949 10948 10947 10947 10947 10946 10946 10946 10946 10946 10947 10948 10948 10949 10947 10946 10945 10945 10945 10945 10945 10945 10945 10945 10945 10945 10944 10944 10943 10943
10991 10990 10988 10988 10987 10986 10986 10985 10984 10984 10983 10983 10983 10982 10982 10981 10980 10979 10978 10978 10978 10978 10978 10977 10976 10976 10975 10974 10974 10973 10972 10971 10971 10970 10969 10967 10966 10965 10965 10964 10963 10963 10963 10963 10963 10964 10964 10963 10961 10959 10957 10954 10952 10951 10950 10949 10948 10948 10948 10947 10947 10947 10946 10946 10947 10947 10947 10948 10947 10946 10945 10944 10944 10945 10945 10945 10945 10945 10945 10945 10944 10944 10944 10943 10943
10991 10990 10989 10988 10988 10987 10987 10986 10985 10985 10985 10984 10984 10983 10983 10983 10982 10981 10980 10980 10980 10980 10980 10979 10978 10978 10977 10977 10976 10975 10975 10974 10974 10973 10971 10970 10969 10969 10968 10968 10967 10966 10966 10966 10966 10966 10965 10964 10963 10961 10959 10957 10954 10953 10951 10950 10950 10949 10949 10948 10948 10947 10947 10947 10947 10947 10948 10948 10947 10946 10945 10945 10944 10945 10945 10946 10945 10945 10945 10944 10944 10944 10943 10943 10942
10991 10990 10989 10989 10988 10988 10988 10987 10987 10986 10986 10986 10985 10985 10985 10984 10983 10982 10982 10982 10982 10982 10982 10981 10980 10980 10980 10980 10979 10978 10978 10977 10977 10976 10974 10974 10973 10972 10972 10971 10971 10970 10970 10969 10969 10969 10968 10967 10965 10963 10961 10959 10957 10956 10954 10953 10952 10952 10951 10950 10949 10949 10948 10948 10948 10948 10948 10948 10948 10947 10946 10946 10945 10945 10946 10946 10946 10945 10945 10944 10944 10943 10943 10942 10942
10992 10991 10990 10990 10989 10989 10989 10988 10988 10987 10987 10987 10987 10986 10986 10986 10985 10984 10984 10984 10984 10984 10984 10984 10983 10983 10982 10982 10982 10981 10981 10980 10980 10979 10978 10977 10976 10976 10975 10975 10975 10974 10973 10973 10972 10971 10971 10970 10968 10966 10964 10961 10960 10959 10957 10956 10956 10955 10954 10953 10951 10951 10950 10950 10949 10949 10949 10949 10948 10948 10947 10947 10946 10946 10946 10946 10946 10945 10944 10944 10943 10943 10942 10941 10941
10992 10991 10990 10990 10990 10990 10989 10989 10989 10989 10988 10988 10988 10988 10988 10987 10987 10986 10986 10986 10986 10986 10986 10986 10985 10985 10985 10985 10984 10984 10983 10983 10983 10983 10981 10980 10980 10979 10979 10978 10978 10977 10977 10976 10975 10974 10973 10972 10971 10969 10967 10965 10964 10963 10961 10960 10959 10958 10957 10955 10954 10954 10953 10952 10952 10951 10951 10950 10949 10949 10948 10947 10947 10947 10946 10946 10945 10945 10944 10943 10943 10942 10941 10941 10941
10991 10991 10991 10991 10991 10990 10990 10990 10990 10990 10990 10990 10989 10989 10989 10989 10988 10988 10988 10988 10988 10988 10988 10988 10987 10987 10987 10987 10986 10986 10986 10986 10986 10986 10984 10983 10982 10982 10981 10981 10981 10980 10979 10978 10977 10975 10974 10974 10973 10971 10970 10968 10967 10966 10965 10963 10962 10961 10960 10958 10957 10956 10956 10955 10955 10954 10953 10952 10951 10950 10949 10948 10947 10947 10946 10946 10945 10944 10943 10943 10942 10941 10941 10941 10940
10991 10991 10991 10991 10991 10991 10991 10991 10991 10991 10991 10991 10991 10991 10990 10990 10990 10989 10989 10990 10990 10990 10990 10990 10990 10989 10989 10989 10989 10989 10989 10989 10988 10988 10987 10986 10985 10984 10984 10983 10983 10982 10981 10980 10979 10978 10977 10976 10976 10974 10973 10972 10970 10969 10968 10966 10964 10963 10962 10960 10959 10958 10958 10958 10957 10956 10956 10955 10954 10952 10951 10950 10949 10947 10947 10946 10945 10944 10943 10942 10942 10941 10941 10940 10940
10991 10991 10991 10991 10991 10991 10991 10991 10992 10992 10992 10993 10993 10992 10991 10991 10991 10991 10991 10991 10991 10992 10992 10992 10992 10991 10991 10991 10991 10991 10991 10991 10991 10990 10989 10988 10988 10987 10986 10986 10985 10985 10984 10983 10981 10981 10981 10980 10979 10978 10977 10975 10973 10972 10970 10969 10967 10965 10964 10962 10961 10961 10960 10960 10959 10958 10957 10957 10956 10954 10953 10951 10950 10949 10948 10947 10947 10946 10945 10944 10943 10942 10941 10941 10940
10990 10991 10991 10991 10991 10991 10991 10992 10992 10993 10993 10994 10994 10993 10992 10992 10992 10992 10993 10993 10993 10993 10994 10994 10994 10993 10993 10993 10993 10994 10993 10993 10993 10992 10991 10991 10990 10990 10989 10989 10988 10988 10987 10985 10984 10984 10984 10983 10982 10981 10980 10978 10976 10975 10973 10971 10969 10968 10966 10965 10964 10963 10963 10962 10961 10960 10959 10959 10958 10955 10954 10953 10952 10951 10950 10949 10948 10947 10947 10946 10945 10944 10943 10942 10942
10990 10991 10991 10991 10992 10992 10992 10992 10993 10994 10994 10995 10995 10995 10994 10993 10994 10994 10995 10995 10995 10995 10996 10996 10996 10996 10996 10996 10996 10996 10995 10995 10995 10994 10994 10993 10993 10992 10992 10991 10991 10990 10989 10988 10987 10986 10985 10984 10984 10982 10981 10980 10978 10977 10975 10974 10972 10971 10969 10968 10967 10966 10965 10964 10964 10963 10961 10961 10960 10957 10956 10955 10954 10953 10952 10951 10950 10949 10948 10947 10946 10945 10945 10944 10944
10990 10991 10991 10992 10992 10992 10992 10993 10994 10995 10995 10996 10996 10996 10995 10995 10995 10996 10996 10997 10997 10997 10998 10998 10998 10998 10998 10998 10998 10998 10997 10997 10996 10996 10996 10996 10995 10995 10994 10994 10993 10992 10992 10991 10989 10988 10987 10987 10986 10985 10984 10982 10981 10980 10978 10977 10976 10974 10973 10972 10971 10970 10969 10967 10966 10966 10964 10964 10963 10961 10959 10957 10956 10955 10954 10953 10952 10951 10950 10949 10948 10947 10947 10947 10947
10990 10991 10992 10992 10992 10992 10992 10993 10994 10995 10996 10996 10997 10997 10997 10997 10997 10998 10998 10998 10999 10999 11000 11000 11000 11000 11000 11001 11001 11000 10999 10999 10998 10998 10998 10998 10998 10997 10997 10996 10996 10995 10994 10993 10992 10991 10991 10990 10989 10988 10986 10985 10984 10983 10982 10981 10979 10978 10977 10976 10975 10974 10972 10970 10969 10968 10968 10966 10966 10965 10963 10961 10960 10958 10957 10956 10955 10954 10953 10952 10952 10951 10950 10950 10950
10990 10991 10992 10992 10992 10992 10993 10994 10995 10996 10997 10997 10998 10998 10998 10999 10999 11000 11000 11000 11001 11001 11002 11002 11002 11002 11003 11003 11003 11003 11002 11001 11001 11000 11000 11000 11000 11000 11000 10999 10998 10997 10997 10996 10996 10995 10994 10993 10992 10991 10990 10988 10987 10986 10985 10984 10982 10982 10981 10980 10979 10978 10976 10974 10972 10972 10971 10970 10970 10969 10967 10965 10964 10962 10961 10959 10959 10958 10957 10956 10955 10955 10954 10954 10953
10990 10991 10992 10992 10992 10992 10993 10994 10995 10997 10998 10998 10999 11000 11000 11000 11001 11002 11002 11002 11003 11003 11004 11004 11005 11005 11005 11005 11005 11005 11004 11003 11003 11003 11002 11002 11002 11002 11002 11001 11001 11000 10999 10999 10998 10998 10997 10996 10995 10995 10993 10992 10990 10989 10988 10986 10985 10984 10984 10983 10982 10981 10979 10978 10976 10975 10974 10974 10973 10972 10970 10969 10967 10966 10965 10963 10962 10961 10960 10959 10958 10958 10958 10957 10956
10990 10991 10992 10992 10992 10992 10993 10994 10996 10997 10999 10999 11000 11001 11001 11002 11003 11004 11004 11004 11005 11005 11006 11006 11007 11007 11007 11007 11007 11007 11006 11006 11005 11005 11004 11004 11004 11004 11004 11004 11003 11002 11002 11001 11001 11001 11000 10999 10998 10998 10997 10995 10993 10992 10990 10989 10988 10987 10987 10986 10984 10983 10982 10981 10979 10978 10977 10977 10976 10975 10973 10972 10971 10969 10968 10967 10965 10964 10963 10962 10961 10961 10961 10960 10960
10990 10992 10992 10992 10993 10993 10994 10995 10997 10998 10999 11000 11001 11002 11003 11004 11005 11005 11006 11006 11007 11007 11007 11008 11008 11009 11009 11009 11009 11009 11009 11008 11007 11007 11007 11006 11006 11006 11006 11006 11005 11005 11004 11004 11004 11003 11002 11002 11001 11001 11000 10999 10997 10995 10993 10992 10990 10989 10988 10988 10986 10985 10984 10983 10982 10981 10980 10980 10979 10978 10976 10975 10974 10972 10971 10970 10969 10968 10967 10966 10965 10964 10964 10963 10963
10991 10992 10993 10993 10993 10994 10994 10996 10997 10999 11000 11001 11002 11003 11004 11005 11006 11007 11007 11008 11008 11009 11009 11010 11010 11010 11010 11011 11011 11011 11010 11010 11009 11009 11009 11009 11008 11008 11008 11008 11007 11007 11006 11006 11006 11005 11005 11004 11004 11005 11004 11002 10999 10998 10996 10994 10993 10992 10991 10990 10988 10987 10986 10985 10984 10983 10983 10982 10981 10980 10979 10978 10976 10975 10974 10973 10972 10971 10970 10969 10968 10967 10966 10966 10965
10991 10992 10993 10993 10993 10994 10995 10996 10998 11000 11001 11002 11003 11004 11005 11007 11007 11008 11009 11010 11010 11010 11011 11012 11012 11012 11012 11012 11012 11012 11012 11012 11011 11011 11011 11011 11011 11010 11010 11010 11010 11009 11008 11008 11008 11007 11007 11007 11007 11009 11007 11004 11002 11000 10998 10997 10995 10994 10993 10992 10990 10989 10988 10987 10986 10986 10985 10984 10983 10982 10981 10979 10978 10977 10976 10975 10974 10973 10972 10971 10970 10969 10968 10967 10966
10992 10993 10993 10993 10994 10995 10996 10997 10999 11000 11002 11003 11004 11005 11006 11008 11009 11010 11011 11011 11012 11012 11013 11013 11014 11013 11014 11014 11014 11014 11014 11014 11013 11013 11013 11013 11013 11013 11012 11012 11012 11011 11011 11010 11010 11010 11010 11010 11009 11010 11008 11006 11004 11002 11001 10999 10998 10997 10996 10994 10993 10991 10990 10989 10988 10988 10987 10985 10984 10983 10982 10980 10979 10978 10977 10976 10975 10974 10973 10972 10971 10970 10969 10968 10968
10992 10993 10994 10994 10994 10995 10996 10998 10999 11001 11002 11004 11005 11006 11007 11009 11010 11011 11012 11013 11013 11014 11014 11015 11015 11015 11015 11015 11015 11016 11016 11016 11015 11015 11015 11015 11015 11015 11014 11014 11014 11013 11013 11013 11013 11012 11012 11011 11011 11010 11009 11007 11006 11004 11003 11002 11001 10999 10998 10997 10995 10994 10992 10991 10991 10990 10989 10987 10986 10984 10983 10982 10980 10979 10978 10977 10975 10974 10974 10973 10972 10971 10970 10969 10968
10992 10993 10994 10995 10995 10995 10996 10998 11000 11002 11003 11005 11006 11007 11008 11010 11011 11012 11013 11014 11015 11015 11016 11016 11017 11017 11017 11017 11017 11018 11018 11018 11017 11017 11017 11017 11017 11017 11016 11016 11015 11015 11015 11015 11015 11014 11014 11013 11012 11011 11010 11009 11008 11006 11005 11004 11003 11002 11001 11000 10998 10997 10995 10994 10993 10992 10990 10989 10987 10985 10984 10982 10981 10980 10979 10977 10976 10975 10974 10973 10972 10971 10970 10970 10969
10993 10994 10994 10995 10996 10996 10997 10998 11000 11002 11004 11006 11007 11008 11010 11011 11012 11013 11014 11015 11016 11017 11017 11018 11018 11019 11019 11019 11019 11020 11020 11020 11019 11019 11019 11019 11019 11019 11018 11018 11017 11017 11017 11017 11017 11016 11016 11015 11013 11013 11012 11010 11009 11008 11007 11006 11005 11004 11003 11002 11001 10999 10998 10996 10995 10994 10992 10991 10989 10987 10985 10983 10982 10980 10979 10978 10977 10976 10975 10974 10972 10971 10970 10969 10969
10993 10995 10995 10996 10997 10998 10998 10999 11001 11003 11005 11007 11008 11009 11011 11012 11013 11014 11015 11016 11017 11018 11018 11019 11020 11020 11021 11021 11021 11021 11021 11021 11021 11021 11021 11021 11021 11021 11020 11019 11019 11019 11019 11018 11018 11018 11017 11016 11015 11014 11013 11012 11011 11010 11009 11008 11007 11006 11005 11004 11003 11001 11000 10998 10997 10995 10994 10992 10990 10987 10985 10984 10982 10981 10979 10978 10977 10976 10974 10973 10972 10971 10969 10968 10968
10994 10995 10996 10997 10998 10999 11000 11001 11002 11004 11006 11007 11009 11010 11011 11012 11014 11015 11016 11017 11018 11019 11019 11020 11021 11021 11022 11023 11022 11023 11023 11023 11023 11022 11023 11023 11023 11023 11022 11022 11021 11021 11021 11020 11020 11019 11019 11018 11017 11016 11015 11013 11013 11012 11011 11010 11009 11008 11007 11006 11004 11003 11002 11000 10999 10997 10995 10993 10990 10988 10986 10984 10982 10981 10979 10978 10976 10975 10974 10973 10971 10970 10969 10967 10966
10995 10996 10997 10998 10999 11000 11001 11002 11003 11005 11006 11007 11009 11010 11011 11012 11014 11015 11016 11017 11018 11019 11020 11021 11022 11023 11023 11024 11024 11024 11024 11024 11024 11024 11024 11025 11025 11025 11024 11024 11023 11023 11023 11022 11022 11021 11021 11020 11019 11018 11016 11015 11015 11014 11013 11012 11011 11010 11009 11007 11006 11004 11003 11002 11000 10998 10996 10994 10991 10989 10987 10985 10983 10981 10980 10978 10976 10975 10973 10972 10971 10969 10968 10967 10966
10995 10996 10997 10998 10999 11000 11001 11002 11003 11005 11006 11007 11008 11010 11011 11012 11014 11015 11016 11017 11019 11020 11021 11022 11023 11023 11024 11025 11025 11025 11026 11026 11025 11025 11025 11026 11026 11026 11026 11026 11025 11025 11024 11024 11024 11023 11022 11021 11020 11020 11018 11017 11016 11015 11015 11014 11013 11012 11010 11009 11007 11006 11004 11003 11001 10999 10997 10995 10992 10990 10987 10985 10984 10982 10980 10978 10976 10974 10973 10971 10970 10969 10967 10966 10965
10995 10996 10997 10998 10999 11001 11002 11003 11004 11005 11007 11008 11009 11010 11011 11013 11014 11016 11017 11018 11019 11020 11021 11022 11023 11024 11025 11026 11026 11026 11027 11027 11027 11027 11027 11027 11027 11028 11027 11027 11026 11026 11026 11025 11025 11024 11024 11023 11022 11021 11020 11019 11018 11017 11016 11016 11015 11013 11012 11010 11009 11007 11006 11004 11002 11000 10998 10995 10992 10990 10988 10986 10984 10982 10980 10978 10976 10974 10973 10971 10970 10968 10967 10966 10964
10995 10996 10998 10999 11000 11001 11002 11003 11005 11006 11007 11009 11010 11011 11012 11013 11015 11017 11018 11019 11020 11021 11022 11023 11023 11024 11025 11026 11027 11027 11027 11028 11028 11028 11028 11028 11029 11029 11029 11028 11028 11027 11027 11027 11026 11026 11025 11024 11023 11023 11022 11021 11020 11019 11018 11017 11016 11015 11013 11012 11010 11009 11007 11005 11003 11001 10999 10996 10993 10991 10989 10987 10985 10983 10981 10979 10977 10975 10973 10971 10969 10968 10966 10965 10963
10995 10996 10997 10999 11000 11001 11002 11004 11005 11006 11007 11009 11011 11012 11013 11014 11015 11017 11018 11020 11021 11021 11022 11023 11024 11025 11025 11026 11027 11027 11028 11028 11029 11029 11029 11029 11029 11030 11030 11029 11029 11029 11028 11028 11028 11027 11026 11026 11025 11024 11023 11022 11022 11021 11020 11019 11017 11016 11015 11013 11011 11010 11008 11006 11004 11002 10999 10996 10994 10992 10989 10987 10985 10983 10981 10979 10977 10975 10973 10971 10969 10967 10965 10964 10962
10995 10996 10997 10998 11000 11001 11002 11003 11005 11006 11008 11009 11011 11012 11014 11015 11015 11016 11017 11018 11019 11021 11022 11023 11024 11025 11026 11026 11027 11027 11028 11028 11029 11029 11029 11030 11030 11030 11030 11030 11030 11029 11029 11029 11029 11028 11028 11027 11026 11025 11025 11024 11023 11022 11021 11020 11019 11017 11016 11014 11012 11011 11009 11007 11005 11002 11000 10997 10995 10993 10990 10988 10985 10984 10982 10980 10977 10975 10973 10971 10969 10967 10964 10962 10961
10994 10996 10997 10998 10999 11001 11002 11003 11005 11006 11008 11009 11011 11012 11014 11014 11015 11015 11016 11017 11018 11020 11021 11023 11024 11025 11026 11026 11027 11027 11027 11028 11028 11029 11029 11030 11030 11031 11031 11030 11030 11030 11030 11030 11029 11029 11028 11028 11027 11026 11026 11025 11024 11023 11022 11021 11020 11018 11017 11015 11013 11011 11009 11007 11005 11003 11000 10998 10996 10993 10991 10988 10986 10984 10982 10980 10977 10975 10973 10971 10968 10966 10964 10962 10960
10994 10995 10997 10998 10999 11001 11002 11003 11004 11006 11007 11008 11010 11012 11013 11014 11014 11015 11016 11017 11019 11020 11021 11023 11024 11025 11026 11026 11027 11027 11027 11028 11028 11029 11029 11030 11030 11031 11031 11030 11030 11030 11030 11030 11029 11029 11028 11028 11027 11027 11026 11025 11025 11024 11023 11021 11020 11019 11017 11016 11014 11012 11010 11008 11006 11003 11001 10999 10997 10994 10991 10989 10987 10985 10982 10980 10978 10975 10973 10971 10968 10966 10963 10962 10960
10993 10994 10995 10997 10998 10999 11001 11002 11004 11005 11006 11008 11009 11010 11011 11012 11013 11014 11016 11017 11019 11020 11022 11023 11024 11025 11026 11026 11027 11027 11027 11028 11028 11028 11029 11029 11030 11031 11031 11031 11030 11030 11029 11029 11029 11029 11028 11028 11027 11027 11026 11025 11025 11024 11023 11022 11021 11019 11018 11016 11015 11013 11011 11009 11007 11004 11002 11000 10997 10995 10992 10990 10988 10985 10983 10980 10978 10975 10973 10971 10968 10966 10963 10961 10959
10992 10993 10994 10995 10997 10999 11000 11002 11003 11004 11006 11007 11008 11009 11010 11011 11012 11014 11016 11018 11019 11020 11021 11023 11024 11025 11025 11026 11026 11027 11027 11028 11028 11028 11028 11029 11030 11030 11031 11031 11030 11030 11029 11029 11029 11029 11028 11028 11027 11027 11026 11025 11024 11023 11023 11022 11021 11020 11018 11017 11015 11014 11012 11010 11008 11005 11003 11000 10998 10996 10993 10991 10988 10986 10984 10981 10978 10975 10973 10970 10968 10966 10964 10962 10960